Weather History for Jacksonville, NC

Change the Weather History Date:

Sunday, May 25, 2014

  Actual Average Record
Temperature  
Mean Temperature 68 °F -  
Max Temperature 82 °F 80 °F 96 °F (2011)
Min Temperature 53 °F 58 °F 42 °F (2013)
Cooling Degree Days 2    
Growing Degree Days 18 (Base 50)    
Moisture  
Dew Point 55 °F    
Average Humidity 66    
Maximum Humidity 94    
Minimum Humidity 34    
Precipitation  
Precipitation 0.00 in - - ()
Sea Level Pressure  
Sea Level Pressure 30.17 in    
Wind  
Wind Speed 2 mph (SW)    
Max Wind Speed 10 mph    
Max Gust Speed -    
Visibility 10 miles    
Events      
Averages and records for this station are not official NWS values.
T = Trace of Precipitation, MM = Missing Value Source: NWS Daily Summary

Daily Weather History Graph

Daily Weather History Graph

Search for Another Location

Airport:

Trip Planner

Search our weather history database for the weather conditions in past years. The results will help you decide how hot, cold, wet, or windy it might be!

Date:

Astronomy

May. 25, 2014 Rise Set
Actual Time 6:01 AM EDT 8:14 PM EDT
Civil Twilight 5:32 AM EDT 8:42 PM EDT
Nautical Twilight 4:57 AM EDT 9:18 PM EDT
Astronomical Twilight 4:19 AM EDT 9:56 PM EDT
Moon 3:56 AM EDT (5/25) 5:19 PM EDT (5/25)
Length of Visible Light 15h 10m
Length of Day
14h 13m
Waning Crescent, 10% of the Moon is Illuminated
May 25
Waning Crescent
May 28
New
Jun 5
First Quarter
Jun 13
Full
Jun 19
Last Quarter

Hourly Weather History & Observations

Time (EDT) Temp. Heat Index Dew Point Humidity Pressure Visibility Wind Dir Wind Speed Gust Speed Precip Events Conditions
12:15 AM 57.2 °F - 53.6 °F 88% 30.15 in 10.0 mi Calm Calm - N/A   Clear
12:35 AM 57.2 °F - 53.6 °F 88% 30.15 in 10.0 mi Calm Calm - N/A   Clear
12:55 AM 57.2 °F - 53.6 °F 88% 30.15 in 10.0 mi Calm Calm - N/A   Clear
1:15 AM 57.2 °F - 53.6 °F 88% 30.14 in 10.0 mi Calm Calm - N/A   Clear
1:35 AM 57.2 °F - 53.6 °F 88% 30.14 in 10.0 mi Calm Calm - N/A   Clear
2:15 AM 57.2 °F - 53.6 °F 88% 30.13 in 10.0 mi Calm Calm - N/A   Clear
2:35 AM 55.4 °F - 53.6 °F 94% 30.13 in 10.0 mi Calm Calm - N/A   Clear
2:55 AM 55.4 °F - 53.6 °F 94% 30.13 in 10.0 mi Calm Calm - N/A   Clear
3:15 AM 55.4 °F - 51.8 °F 88% 30.13 in 10.0 mi Calm Calm - N/A   Clear
3:35 AM 55.4 °F - 51.8 °F 88% 30.13 in 10.0 mi Calm Calm - N/A   Clear
3:55 AM 55.4 °F - 51.8 °F 88% 30.13 in 10.0 mi Calm Calm - N/A   Clear
4:15 AM 55.4 °F - 51.8 °F 88% 30.13 in 10.0 mi Calm Calm - N/A   Clear
4:35 AM 53.6 °F - 51.8 °F 94% 30.13 in 8.0 mi Calm Calm - N/A   Clear
4:55 AM 53.6 °F - 51.8 °F 94% 30.13 in 10.0 mi Calm Calm - N/A   Clear
5:15 AM 53.6 °F - 50.0 °F 88% 30.14 in 10.0 mi Calm Calm - N/A   Clear
5:35 AM 53.6 °F - 50.0 °F 88% 30.15 in 10.0 mi Calm Calm - N/A   Clear
5:55 AM 53.6 °F - 50.0 °F 88% 30.15 in 10.0 mi Calm Calm - N/A   Clear
6:15 AM 53.6 °F - 50.0 °F 88% 30.15 in 9.0 mi Calm Calm - N/A   Clear
6:35 AM 53.6 °F - 50.0 °F 88% 30.16 in 10.0 mi Calm Calm - N/A   Clear
6:55 AM 55.4 °F - 51.8 °F 88% 30.17 in 10.0 mi Calm Calm - N/A   Clear
7:15 AM 57.2 °F - 53.6 °F 88% 30.18 in 10.0 mi Calm Calm - N/A   Clear
7:35 AM 60.8 °F - 57.2 °F 88% 30.18 in 10.0 mi Calm Calm - N/A   Clear
7:55 AM 62.6 °F - 59.0 °F 88% 30.18 in 10.0 mi Calm Calm - N/A   Clear
8:15 AM 66.2 °F - 60.8 °F 83% 30.19 in 10.0 mi WSW 3.5 mph - N/A   Clear
8:35 AM 69.8 °F - 60.8 °F 73% 30.19 in 10.0 mi Calm Calm - N/A   Clear
8:55 AM 71.6 °F - 60.8 °F 69% 30.19 in 10.0 mi SW 3.5 mph - N/A   Clear
9:15 AM 73.4 °F - 60.8 °F 65% 30.20 in 10.0 mi SW 5.8 mph - N/A   Clear
9:35 AM 73.4 °F - 59.0 °F 61% 30.20 in 10.0 mi West 6.9 mph - N/A   Clear
9:55 AM 75.2 °F - 57.2 °F 53% 30.20 in 10.0 mi WSW 5.8 mph - N/A   Clear
10:15 AM 75.2 °F - 57.2 °F 53% 30.21 in 10.0 mi Calm Calm - N/A   Clear
11:15 AM 78.8 °F - 53.6 °F 42% 30.21 in 10.0 mi WSW 5.8 mph - N/A   Partly Cloudy
11:35 AM 78.8 °F - 53.6 °F 42% 30.20 in 10.0 mi WSW 3.5 mph - N/A   Clear
11:55 AM 80.6 °F 80.3 °F 53.6 °F 39% 30.20 in 10.0 mi SSE 5.8 mph - N/A   Clear
12:15 PM 78.8 °F - 53.6 °F 42% 30.20 in 10.0 mi NW 3.5 mph - N/A   Clear
12:35 PM 78.8 °F - 53.6 °F 42% 30.19 in 10.0 mi NW 5.8 mph - N/A   Clear
12:55 PM 78.8 °F - 51.8 °F 39% 30.19 in 10.0 mi Calm Calm - N/A   Clear
1:15 PM 80.6 °F 80.3 °F 53.6 °F 39% 30.18 in 10.0 mi West 5.8 mph - N/A   Clear
1:35 PM 80.6 °F - 51.8 °F 37% 30.17 in 10.0 mi SSE 3.5 mph - N/A   Clear
1:55 PM 82.4 °F - 51.8 °F 35% 30.17 in 10.0 mi North 3.5 mph - N/A   Partly Cloudy
2:15 PM 80.6 °F - 51.8 °F 37% 30.17 in 10.0 mi Calm Calm - N/A   Scattered Clouds
2:35 PM 82.4 °F - 51.8 °F 35% 30.16 in 10.0 mi West 5.8 mph - N/A   Scattered Clouds
2:55 PM 80.6 °F - 50.0 °F 34% 30.16 in 10.0 mi Calm Calm - N/A   Clear
3:15 PM 82.4 °F - 51.8 °F 35% 30.16 in 10.0 mi WSW 5.8 mph - N/A   Clear
3:35 PM 82.4 °F - 51.8 °F 35% 30.16 in 10.0 mi WNW 3.5 mph - N/A   Partly Cloudy
3:55 PM 82.4 °F 81.4 °F 53.6 °F 37% 30.15 in 10.0 mi WSW 5.8 mph - N/A   Scattered Clouds
4:15 PM 80.6 °F 80.3 °F 53.6 °F 39% 30.15 in 10.0 mi West 3.5 mph - N/A   Partly Cloudy
4:35 PM 82.4 °F 82.0 °F 57.2 °F 42% 30.15 in 10.0 mi WSW 3.5 mph - N/A   Clear
4:55 PM 82.4 °F 82.0 °F 57.2 °F 42% 30.15 in 10.0 mi SW 6.9 mph - N/A   Clear
5:35 PM 82.4 °F 81.7 °F 55.4 °F 39% 30.14 in 10.0 mi SW 3.5 mph - N/A   Partly Cloudy
5:55 PM 80.6 °F 80.8 °F 57.2 °F 45% 30.14 in 10.0 mi South 10.4 mph - N/A   Clear
6:15 PM 78.8 °F - 57.2 °F 47% 30.15 in 10.0 mi South 9.2 mph - N/A   Clear
6:35 PM 77.0 °F - 57.2 °F 50% 30.15 in 10.0 mi South 8.1 mph - N/A   Clear
6:55 PM 75.2 °F - 57.2 °F 53% 30.15 in 10.0 mi South 9.2 mph - N/A   Clear
7:15 PM 75.2 °F - 57.2 °F 53% 30.16 in 10.0 mi South 5.8 mph - N/A   Clear
7:35 PM 73.4 °F - 57.2 °F 57% 30.16 in 10.0 mi South 6.9 mph - N/A   Clear
7:55 PM 71.6 °F - 57.2 °F 60% 30.16 in 10.0 mi South 6.9 mph - N/A   Clear
8:15 PM 71.6 °F - 57.2 °F 60% 30.16 in 10.0 mi South 4.6 mph - N/A   Clear
8:35 PM 69.8 °F - 57.2 °F 64% 30.16 in 10.0 mi South 4.6 mph - N/A   Clear
8:55 PM 69.8 °F - 57.2 °F 64% 30.17 in 10.0 mi South 4.6 mph - N/A   Clear
9:15 PM 69.8 °F - 57.2 °F 64% 30.18 in 10.0 mi South 5.8 mph - N/A   Clear
9:35 PM 68.0 °F - 57.2 °F 68% 30.19 in 10.0 mi South 3.5 mph - N/A   Clear
9:55 PM 66.2 °F - 57.2 °F 73% 30.20 in 10.0 mi South 5.8 mph - N/A   Clear
10:15 PM 64.4 °F - 57.2 °F 77% 30.21 in 10.0 mi SSW 5.8 mph - N/A   Clear
10:35 PM 64.4 °F - 57.2 °F 77% 30.22 in 10.0 mi South 4.6 mph - N/A   Clear
10:55 PM 64.4 °F - 57.2 °F 77% 30.22 in 10.0 mi South 4.6 mph - N/A   Clear
11:15 PM 62.6 °F - 57.2 °F 82% 30.21 in 10.0 mi Calm Calm - N/A   Clear
11:35 PM 62.6 °F - 57.2 °F 82% 30.21 in 10.0 mi South 3.5 mph - N/A   Clear
11:55 PM 62.6 °F - 57.2 °F 82% 30.21 in 10.0 mi SSW 3.5 mph - N/A   Clear